TimeCST,TemperatureF,Dew PointF,Humidity,Sea Level PressureIn,VisibilityMPH,Wind Direction,Wind SpeedMPH,Gust SpeedMPH,PrecipitationIn,Events,Conditions,WindDirDegrees,DateUTC
12:15 AM,30.7,23.4,74,30.06,10.0,West,8.1,-,N/A,,Mostly Cloudy,260,2013-02-23 06:15:00
12:35 AM,31.1,22.6,71,30.06,10.0,West,9.2,-,N/A,,Overcast,260,2013-02-23 06:35:00
12:55 AM,30.6,21.9,70,30.05,10.0,West,9.2,-,N/A,,Mostly Cloudy,270,2013-02-23 06:55:00
1:15 AM,29.5,21.9,73,30.05,10.0,West,5.8,-,N/A,,Scattered Clouds,270,2013-02-23 07:15:00
1:35 AM,29.1,21.9,74,30.05,10.0,WSW,5.8,-,N/A,,Scattered Clouds,250,2013-02-23 07:35:00
1:55 AM,28.2,22.1,78,30.04,10.0,SW,3.5,-,N/A,,Clear,230,2013-02-23 07:55:00
2:15 AM,28.2,21.4,76,30.04,10.0,SW,4.6,-,N/A,,Clear,230,2013-02-23 08:15:00
2:35 AM,27.3,21.9,80,30.04,10.0,SW,3.5,-,N/A,,Clear,220,2013-02-23 08:35:00
2:55 AM,27.9,21.2,76,30.04,10.0,SW,5.8,-,N/A,,Clear,230,2013-02-23 08:55:00
3:15 AM,28.2,21.6,76,30.04,10.0,SW,5.8,-,N/A,,Clear,220,2013-02-23 09:15:00
3:35 AM,27.7,21.6,78,30.04,10.0,SW,5.8,-,N/A,,Clear,220,2013-02-23 09:35:00
3:55 AM,27.5,21.7,79,30.04,10.0,SSW,5.8,-,N/A,,Clear,210,2013-02-23 09:55:00
4:15 AM,27.1,22.1,81,30.05,10.0,SW,5.8,-,N/A,,Clear,230,2013-02-23 10:15:00
4:35 AM,27.5,22.1,80,30.05,10.0,WSW,8.1,-,N/A,,Clear,240,2013-02-23 10:35:00
4:55 AM,27.3,21.9,80,30.05,10.0,WSW,9.2,-,N/A,,Clear,240,2013-02-23 10:55:00
5:15 AM,27.3,21.6,79,30.05,10.0,WSW,8.1,-,N/A,,Clear,240,2013-02-23 11:15:00
5:35 AM,26.6,21.7,82,30.06,10.0,WSW,8.1,-,N/A,,Clear,240,2013-02-23 11:35:00
5:55 AM,26.4,21.7,82,30.05,10.0,WSW,6.9,-,N/A,,Clear,250,2013-02-23 11:55:00
6:15 AM,25.7,21.0,82,30.05,10.0,WSW,5.8,-,N/A,,Clear,240,2013-02-23 12:15:00
6:35 AM,25.3,20.8,83,30.05,10.0,WSW,4.6,-,N/A,,Clear,240,2013-02-23 12:35:00
6:55 AM,25.9,21.4,83,30.05,7.0,WSW,3.5,-,N/A,,Clear,240,2013-02-23 12:55:00
7:15 AM,27.3,22.1,81,30.04,10.0,WSW,4.6,-,N/A,,Clear,240,2013-02-23 13:15:00
7:35 AM,28.0,21.6,77,30.05,10.0,WSW,5.8,-,N/A,,Clear,240,2013-02-23 13:35:00
7:55 AM,28.9,21.7,74,30.05,10.0,WSW,6.9,-,N/A,,Clear,250,2013-02-23 13:55:00
8:15 AM,29.7,21.9,73,30.05,10.0,West,8.1,-,N/A,,Clear,260,2013-02-23 14:15:00
8:35 AM,30.2,22.1,72,30.05,10.0,WSW,9.2,-,N/A,,Clear,250,2013-02-23 14:35:00
8:55 AM,30.9,22.5,71,30.05,10.0,West,8.1,-,N/A,,Clear,270,2013-02-23 14:55:00
9:15 AM,31.1,22.1,69,30.04,10.0,West,5.8,-,N/A,,Clear,260,2013-02-23 15:15:00
9:35 AM,31.6,22.3,68,30.04,10.0,West,5.8,-,N/A,,Clear,280,2013-02-23 15:35:00
9:55 AM,32.2,23.4,70,30.05,10.0,West,5.8,-,N/A,,Scattered Clouds,260,2013-02-23 15:55:00
10:15 AM,32.5,22.8,67,30.03,10.0,West,5.8,-,N/A,,Scattered Clouds,260,2013-02-23 16:15:00
10:35 AM,32.9,23.0,67,30.04,10.0,SSW,4.6,-,N/A,,Scattered Clouds,200,2013-02-23 16:35:00
10:55 AM,33.8,23.5,66,30.05,10.0,WSW,4.6,-,N/A,,Scattered Clouds,250,2013-02-23 16:55:00
11:15 AM,34.2,24.1,67,30.03,10.0,West,5.8,-,N/A,,Scattered Clouds,280,2013-02-23 17:15:00
11:35 AM,34.2,23.7,66,30.03,10.0,West,8.1,-,N/A,,Clear,280,2013-02-23 17:35:00
11:55 AM,34.7,24.4,66,30.02,10.0,WSW,8.1,-,N/A,,Clear,250,2013-02-23 17:55:00
12:15 PM,35.4,25.2,66,30.01,10.0,West,6.9,-,N/A,,Clear,270,2013-02-23 18:15:00
12:35 PM,36.0,25.5,66,30.01,10.0,West,8.1,-,N/A,,Clear,280,2013-02-23 18:35:00
12:55 PM,36.0,24.3,63,30.02,10.0,WSW,9.2,-,N/A,,Clear,240,2013-02-23 18:55:00
1:15 PM,36.9,25.2,63,30.01,10.0,WSW,8.1,-,N/A,,Clear,250,2013-02-23 19:15:00
1:35 PM,36.5,24.1,61,30.00,10.0,WNW,5.8,-,N/A,,Clear,300,2013-02-23 19:35:00
1:55 PM,36.9,25.2,63,30.00,10.0,West,10.4,16.1,N/A,,Clear,280,2013-02-23 19:55:00
2:15 PM,37.4,25.5,62,29.99,10.0,WSW,9.2,-,N/A,,Clear,250,2013-02-23 20:15:00
2:55 PM,37.8,24.6,59,29.99,10.0,SW,8.1,-,N/A,,Clear,220,2013-02-23 20:55:00
3:15 PM,36.7,23.5,59,29.99,10.0,West,8.1,-,N/A,,Clear,270,2013-02-23 21:15:00
3:55 PM,36.1,24.1,62,29.99,10.0,WNW,6.9,-,N/A,,Clear,290,2013-02-23 21:55:00
4:15 PM,35.4,23.2,61,29.98,10.0,West,10.4,-,N/A,,Clear,280,2013-02-23 22:15:00
4:35 PM,34.9,23.9,64,29.99,10.0,West,9.2,-,N/A,,Clear,280,2013-02-23 22:35:00
4:55 PM,34.3,25.0,69,30.00,10.0,West,5.8,-,N/A,,Clear,260,2013-02-23 22:55:00
5:15 PM,34.0,25.0,70,30.00,10.0,West,5.8,-,N/A,,Clear,260,2013-02-23 23:15:00
5:35 PM,33.3,25.5,73,30.00,10.0,WSW,3.5,-,N/A,,Clear,250,2013-02-23 23:35:00
5:55 PM,32.7,25.9,76,30.01,10.0,West,4.6,-,N/A,,Clear,260,2013-02-23 23:55:00
6:15 PM,32.9,25.0,73,30.02,10.0,West,6.9,-,N/A,,Clear,260,2013-02-24 00:15:00
6:35 PM,32.4,25.2,75,30.02,10.0,West,4.6,-,N/A,,Clear,260,2013-02-24 00:35:00
6:55 PM,32.0,25.3,76,30.02,10.0,West,3.5,-,N/A,,Clear,280,2013-02-24 00:55:00
7:15 PM,32.0,24.6,74,30.03,10.0,West,3.5,-,N/A,,Clear,260,2013-02-24 01:15:00
7:35 PM,31.1,23.7,74,30.02,10.0,West,4.6,-,N/A,,Clear,260,2013-02-24 01:35:00
7:55 PM,30.7,24.8,79,30.03,10.0,WNW,4.6,-,N/A,,Clear,300,2013-02-24 01:55:00
8:15 PM,31.1,23.9,75,30.03,10.0,WNW,4.6,-,N/A,,Clear,290,2013-02-24 02:15:00
8:35 PM,30.6,23.7,76,30.03,10.0,WNW,3.5,-,N/A,,Clear,300,2013-02-24 02:35:00
9:15 PM,29.3,23.7,80,30.04,10.0,WNW,3.5,-,N/A,,Clear,290,2013-02-24 03:15:00
9:35 PM,29.3,23.0,77,30.04,10.0,WNW,3.5,-,N/A,,Clear,290,2013-02-24 03:35:00
9:55 PM,28.9,22.6,77,30.04,10.0,WNW,3.5,-,N/A,,Clear,290,2013-02-24 03:55:00
10:15 PM,28.4,22.8,80,30.04,10.0,Calm,Calm,-,N/A,,Clear,0,2013-02-24 04:15:00
10:35 PM,27.9,22.6,81,30.03,10.0,Calm,Calm,-,N/A,,Clear,0,2013-02-24 04:35:00
10:55 PM,28.8,22.8,78,30.03,10.0,Calm,Calm,-,N/A,,Clear,0,2013-02-24 04:55:00
11:15 PM,27.9,22.1,79,30.04,10.0,West,5.8,-,N/A,,Clear,280,2013-02-24 05:15:00
11:35 PM,27.3,22.5,82,30.05,10.0,West,3.5,-,N/A,,Clear,280,2013-02-24 05:35:00
11:55 PM,28.0,23.0,81,30.04,10.0,Calm,Calm,-,N/A,,Clear,0,2013-02-24 05:55:00